Location: Unspecified
(0.0000°N, 0.0000°E)
Time: 20:43:43
(UTC+00:00)

Tiros 1 - Pass Details

Date: 26 October 2021
Orbit: 630 x 664 km, 48.4° (Epoch: 04 December)

Event Time Altitude Azimuth Distance (km) Brightness Sun altitude
Rises 06:16:21 0° 222° (SW) 2,982 10.3 7.9°
Reaches altitude 10° 06:18:42 10° 224° (SW) 2,072 9.5 8.5°
Maximum altitude 06:23:29 74° 309° (NW) 689 7.3 9.6°
Drops below altitude 10° 06:28:15 10° 33° (NNE) 2,069 10.1 10.8°
Sets 06:30:36 0° 35° (NE) 2,977 10.9 11.4°
